W4GHW Weather Reports


Display with metric or nautical units.
time (UTC)temp
F
wind
direction
speed
MPH
gust
MPH
rain 1hr
in
rain 24hr
in
rain mn
in
humidity
%
barometer
mb
20260508222003 70 329 0.0 2.0 0.00 0.00 0.00 74 1014.9
20260508221003 71 329 1.0 2.0 0.00 0.00 0.00 71 1015.1
20260508220004 71 60 1.0 2.0 0.00 0.00 0.00 68 1014.8
20260508215004 72 60 1.0 2.0 0.00 0.00 0.00 65 1014.6
20260508214004 72 59 0.0 2.0 0.00 0.00 0.00 65 1014.3
20260508213004 72 59 0.0 2.0 0.00 0.00 0.00 61 1014.6
20260508212005 73 109 0.0 3.0 0.00 0.00 0.00 61 1015.0
20260508211003 73 153 1.0 3.0 0.00 0.00 0.00 60 1015.1
20260508210004 73 126 1.0 3.0 0.00 0.00 0.00 60 1015.0
20260508205004 73 97 0.0 3.0 0.00 0.00 0.00 60 1015.0
20260508204003 73 119 2.0 3.0 0.00 0.00 0.00 59 1015.1
20260508203003 72 87 2.0 3.0 0.00 0.00 0.00 60 1015.1
20260508202004 72 78 1.0 3.0 0.00 0.00 0.00 59 1015.3
20260508201003 73 110 1.0 5.0 0.00 0.00 0.00 58 1015.2
20260508200004 73 117 3.0 6.0 0.00 0.00 0.00 57 1015.4
20260508195004 73 66 3.0 3.0 0.00 0.00 0.00 59 1015.4
20260508194004 74 95 3.0 7.0 0.00 0.00 0.00 56 1015.3
20260508193004 74 91 2.0 6.0 0.00 0.00 0.00 56 1015.5
20260508192003 75 72 2.0 5.0 0.00 0.00 0.00 55 1015.7
20260508191004 75 112 2.0 3.0 0.00 0.00 0.00 55 1015.9
20260508190004 75 64 3.0 7.0 0.00 0.00 0.00 54 1016.1
20260508185004 75 86 2.0 5.0 0.00 0.00 0.00 54 1016.4
20260508183003 76 107 3.0 5.0 0.00 0.00 0.00 54 1016.4
20260508182004 75 142 2.0 6.0 0.00 0.00 0.00 57 1016.2
20260508181004 74 171 3.0 7.0 0.00 0.00 0.00 54 1016.1
20260508180003 74 344 2.0 6.0 0.00 0.00 0.00 57 1016.2
20260508175004 74 29 1.0 5.0 0.00 0.00 0.00 55 1016.2
20260508173004 74 104 3.0 6.0 0.00 0.00 0.00 57 1016.4
20260508172004 74 54 2.0 5.0 0.00 0.00 0.00 54 1016.8
20260508171004 73 133 2.0 7.0 0.00 0.00 0.00 58 1016.8
20260508165005 72 112 2.0 3.0 0.00 0.00 0.00 57 1017.2
20260508164004 71 43 2.0 3.0 0.00 0.00 0.00 58 1017.0
20260508163004 72 37 1.0 6.0 0.00 0.00 0.00 57 1017.4
20260508162003 72 67 1.0 5.0 0.00 0.00 0.00 56 1017.5
20260508161004 72 92 2.0 7.0 0.00 0.00 0.00 54 1017.6
20260508160004 72 67 3.0 7.0 0.00 0.00 0.00 56 1017.7
20260508155005 72 357 3.0 7.0 0.00 0.00 0.00 54 1017.8
20260508153004 72 303 2.0 8.0 0.00 0.00 0.00 59 1017.8
20260508152004 71 61 3.0 8.0 0.00 0.00 0.00 56 1018.0
20260508151004 71 86 2.0 8.0 0.00 0.00 0.00 62 1018.0
20260508150004 69 40 2.0 8.0 0.00 0.00 0.00 63 1018.0
20260508145003 69 87 1.0 6.0 0.00 0.00 0.00 65 1017.9
20260508144004 68 2 2.0 9.0 0.00 0.00 0.00 65 1018.0
20260508142004 66 27 3.0 9.0 0.00 0.00 0.00 68 1018.0
20260508141004 66 53 3.0 10.0 0.00 0.01 0.00 68 1017.8
20260508140004 66 50 2.0 8.0 0.00 0.04 0.00 70 1017.8
20260508135004 66 66 5.0 9.0 0.00 0.07 0.00 69 1017.9
20260508134004 66 55 2.0 9.0 0.00 0.11 0.00 70 1017.6
20260508132004 66 41 3.0 7.0 0.00 0.15 0.00 72 1017.8
20260508131003 66 358 1.0 6.0 0.00 0.18 0.00 72 1017.8
20260508130004 66 14 4.0 7.0 0.00 0.30 0.00 74 1017.5
20260508125004 65 354 2.0 7.0 0.00 0.36 0.00 77 1017.5
20260508124004 64 8 2.0 5.0 0.00 0.39 0.00 79 1017.5
20260508123004 64 24 1.0 3.0 0.00 0.45 0.00 79 1017.7
20260508122003 64 5 1.0 3.0 0.00 0.62 0.00 80 1017.7
20260508120004 64 5 1.0 3.0 0.00 0.63 0.00 81 1017.2
20260508115004 64 341 1.0 3.0 0.00 0.63 0.00 81 1016.9
20260508114004 63 13 2.0 3.0 0.00 0.63 0.00 82 1016.8
20260508113005 63 42 1.0 2.0 0.00 0.64 0.00 83 1016.4
20260508112005 63 31 1.0 3.0 0.00 0.77 0.00 84 1016.4
20260508111004 63 28 0.0 2.0 0.00 0.90 0.00 84 1016.2
20260508105004 63 18 0.0 2.0 0.00 1.00 0.00 83 1016.4
20260508104005 63 47 0.0 3.0 0.00 1.00 0.00 83 1016.1
20260508103004 63 36 1.0 3.0 0.00 1.00 0.00 83 1015.8
20260508102004 64 40 1.0 3.0 0.00 1.01 0.00 83 1015.6
20260508101004 64 22 0.0 2.0 0.00 1.01 0.00 82 1015.6
20260508100004 64 7 1.0 3.0 0.00 1.01 0.00 81 1015.4
20260508095004 65 49 1.0 5.0 0.00 1.01 0.00 81 1015.2
20260508094004 65 56 2.0 5.0 0.00 1.01 0.00 81 1015.1
20260508093005 65 44 2.0 7.0 0.00 1.01 0.00 81 1015.1
20260508092005 66 22 1.0 5.0 0.00 1.01 0.00 81 1015.3
20260508091005 66 45 2.0 5.0 0.00 1.01 0.00 81 1015.2
20260508090004 66 30 1.0 3.0 0.00 1.02 0.00 81 1015.0
20260508085004 66 24 1.0 3.0 0.00 1.06 0.00 81 1015.0
20260508084004 66 50 1.0 3.0 0.00 1.07 0.00 80 1014.8
20260508083005 66 342 1.0 3.0 0.00 1.08 0.00 80 1014.9
20260508082005 66 348 0.0 3.0 0.00 1.08 0.00 79 1014.6
20260508081004 66 10 1.0 2.0 0.00 1.08 0.00 78 1014.6
20260508080004 67 22 1.0 3.0 0.00 1.08 0.00 77 1014.4
20260508075004 67 1 1.0 5.0 0.00 1.08 0.00 76 1014.8
20260508074004 67 346 2.0 8.0 0.00 1.08 0.00 75 1014.7
20260508073004 67 355 2.0 5.0 0.00 1.08 0.00 77 1015.1
20260508072005 67 352 1.0 6.0 0.00 1.08 0.00 78 1015.1
20260508071006 68 16 4.0 12.0 0.00 1.08 0.00 79 1015.0
20260508070005 68 351 5.0 9.0 0.00 1.08 0.00 80 1014.7
20260508065004 68 1 5.0 9.0 0.00 1.08 0.00 81 1014.7
20260508064005 69 356 3.0 9.0 0.00 1.08 0.00 83 1015.0
20260508063005 69 349 2.0 5.0 0.00 1.08 0.00 83 1014.8
20260508061005 69 356 2.0 3.0 0.00 1.08 0.00 83 1015.1
20260508060004 69 351 2.0 5.0 0.00 1.08 0.00 83 1015.3
20260508055004 70 320 2.0 3.0 0.00 1.08 0.00 82 1015.2
20260508054004 70 341 2.0 5.0 0.00 1.08 0.00 82 1015.3
20260508053004 70 305 2.0 3.0 0.00 1.08 0.00 82 1015.5
20260508052005 71 322 2.0 8.0 0.00 1.08 0.00 82 1015.5
20260508050004 71 297 2.0 10.0 0.00 1.08 0.00 83 1015.2
20260508045004 71 322 2.0 7.0 0.00 1.08 0.00 84 1015.1
20260508044004 71 303 2.0 9.0 0.00 1.08 0.00 85 1014.9
20260508043004 71 291 3.0 9.0 0.00 1.08 0.00 86 1014.7
20260508042004 71 277 3.0 9.0 0.00 1.08 0.00 87 1014.7
20260508041004 72 287 2.0 6.0 0.00 1.08 0.00 88 1014.7
20260508035005 72 296 2.0 7.0 0.00 1.08 1.08 89 1014.7
20260508034005 72 265 2.0 3.0 0.00 1.08 1.08 90 1014.9
20260508032005 72 267 1.0 3.0 0.00 1.08 1.08 89 1014.6
20260508031005 72 257 2.0 3.0 0.00 1.08 1.08 89 1014.4
20260508030005 72 271 2.0 3.0 0.00 1.08 1.08 89 1014.4
20260508025004 73 285 2.0 3.0 0.00 1.08 1.08 89 1014.2
20260508021005 73 274 2.0 3.0 0.00 1.08 1.08 88 1014.1
20260508015005 73 284 1.0 3.0 0.00 1.08 1.08 88 1013.9
20260508014004 73 256 2.0 3.0 0.00 1.08 1.08 87 1013.9
20260508013004 73 277 1.0 3.0 0.00 1.08 1.08 87 1013.6
20260508012004 73 271 2.0 3.0 0.00 1.08 1.08 87 1013.4
20260508011004 74 271 1.0 3.0 0.00 1.08 1.08 86 1013.4
20260508010004 74 244 1.0 3.0 0.00 1.08 1.08 85 1013.2
20260508004004 75 257 1.0 6.0 0.00 1.08 1.08 84 1013.0
20260508003004 75 239 2.0 6.0 0.00 1.08 1.08 84 1012.9
20260508002004 75 246 0.0 3.0 0.00 1.08 1.08 83 1012.8
20260508001004 75 244 1.0 6.0 0.00 1.08 1.08 82 1012.7
20260508000004 76 240 2.0 8.0 0.00 1.08 1.08 82 1012.6
20260507235004 76 254 1.0 8.0 0.00 1.08 1.08 81 1012.5
20260507234004 76 253 1.0 7.0 0.00 1.08 1.08 80 1012.4
20260507233004 77 218 2.0 8.0 0.00 1.08 1.08 80 1012.5
20260507232004 77 236 3.0 9.0 0.00 1.08 1.08 79 1012.6
20260507231004 77 230 2.0 16.0 0.00 1.08 1.08 79 1012.6
20260507230004 78 225 4.0 16.0 0.00 1.08 1.08 79 1012.9
20260507225004 78 243 4.0 14.0 0.00 1.08 1.08 78 1012.6
20260507224004 78 229 3.0 12.0 0.00 1.08 1.08 79 1012.6
20260507223003 78 239 4.0 8.0 0.00 1.08 1.08 78 1012.5